Stündliche Wetter Holoshyntsi

Heute, 21 Juni, Montag

Zeit Temperatur Niederschläge Wind Luftdruck Luftfeuchtigkeit
00:00 +18°C° 0 mm 2 m/S 731 mmHg 95%
01:00 +17°C° 0 mm 2 m/S 731 mmHg 95%
02:00 +17°C° 0 mm 2 m/S 731 mmHg 94%
03:00 +17°C° 0 mm 2 m/S 731 mmHg 95%
04:00 +17°C° 0 mm 2 m/S 731 mmHg 95%
05:00 +17°C° 0 mm 2 m/S 731 mmHg 95%
06:00 +18°C° 0 mm 2 m/S 731 mmHg 91%
07:00 +20°C° 0 mm 2 m/S 731 mmHg 87%
08:00 +21°C° 0 mm 3 m/S 731 mmHg 83%
09:00 +22°C° 0 mm 3 m/S 731 mmHg 78%
10:00 +24°C° 0 mm 3 m/S 731 mmHg 74%
11:00 +25°C° 0 mm 3 m/S 731 mmHg 70%
12:00 +26°C° 0 mm 3 m/S 731 mmHg 67%
13:00 +26°C° 0 mm 3 m/S 731 mmHg 64%
14:00 +27°C° 0 mm 3 m/S 731 mmHg 61%
15:00 +27°C° 0 mm 3 m/S 731 mmHg 64%
16:00 +27°C° 0 mm 2 m/S 731 mmHg 66%
17:00 +27°C° 0 mm 2 m/S 731 mmHg 68%
18:00 +26°C° 0 mm 2 m/S 731 mmHg 73%
19:00 +24°C° 0 mm 2 m/S 730 mmHg 79%
20:00 +22°C° 0 mm 3 m/S 730 mmHg 84%
21:00 +21°C° 0 mm 3 m/S 731 mmHg 87%
22:00 +20°C° 0 mm 3 m/S 731 mmHg 89%
23:00 +19°C° 0 mm 2 m/S 731 mmHg 92%

Morgen, 22 Juni, Dienstag

Zeit Temperatur Niederschläge Wind Luftdruck Luftfeuchtigkeit
00:00 +19°C° 0 mm 2 m/S 731 mmHg 92%
01:00 +19°C° 0 mm 2 m/S 731 mmHg 92%
02:00 +19°C° 0 mm 2 m/S 731 mmHg 93%
03:00 +18°C° 0 mm 2 m/S 731 mmHg 93%
04:00 +18°C° 0 mm 2 m/S 731 mmHg 93%
05:00 +18°C° 0 mm 3 m/S 731 mmHg 93%
06:00 +20°C° 0 mm 3 m/S 731 mmHg 87%
07:00 +22°C° 0 mm 3 m/S 731 mmHg 82%
08:00 +23°C° 0 mm 4 m/S 732 mmHg 76%
09:00 +25°C° 0 mm 4 m/S 732 mmHg 72%
10:00 +27°C° 0 mm 4 m/S 732 mmHg 67%
11:00 +28°C° 0 mm 4 m/S 732 mmHg 62%
12:00 +28°C° 0 mm 3 m/S 732 mmHg 60%
13:00 +29°C° 0 mm 3 m/S 732 mmHg 59%
14:00 +30°C° 0 mm 3 m/S 732 mmHg 57%
15:00 +30°C° 0.1 mm 3 m/S 732 mmHg 60%
16:00 +29°C° 0.1 mm 3 m/S 732 mmHg 62%
17:00 +29°C° 0.1 mm 3 m/S 732 mmHg 65%
18:00 +28°C° 0.1 mm 2 m/S 732 mmHg 71%
19:00 +26°C° 0.1 mm 2 m/S 732 mmHg 78%
20:00 +24°C° 0.1 mm 2 m/S 732 mmHg 84%
21:00 +24°C° 0.1 mm 2 m/S 732 mmHg 86%
22:00 +23°C° 0.1 mm 2 m/S 732 mmHg 88%
23:00 +21°C° 0.1 mm 2 m/S 732 mmHg 91%

übermorgen, 23 Juni, Mittwoch

Zeit Temperatur Niederschläge Wind Luftdruck Luftfeuchtigkeit
00:00 +21°C° 0 mm 2 m/S 732 mmHg 91%
01:00 +20°C° 0 mm 2 m/S 732 mmHg 92%
02:00 +21°C° 0 mm 1 m/S 732 mmHg 92%
03:00 +20°C° 0 mm 2 m/S 732 mmHg 92%
04:00 +20°C° 0 mm 2 m/S 732 mmHg 93%
05:00 +20°C° 0 mm 2 m/S 732 mmHg 93%
06:00 +23°C° 0 mm 2 m/S 733 mmHg 88%
07:00 +24°C° 0 mm 2 m/S 733 mmHg 84%
08:00 +26°C° 0 mm 2 m/S 733 mmHg 80%
09:00 +27°C° 0 mm 2 m/S 734 mmHg 75%
10:00 +28°C° 0 mm 2 m/S 734 mmHg 69%
11:00 +29°C° 0 mm 2 m/S 734 mmHg 64%
12:00 +30°C° 0.2 mm 2 m/S 734 mmHg 62%
13:00 +30°C° 0.2 mm 2 m/S 734 mmHg 60%
14:00 +31°C° 0.2 mm 2 m/S 734 mmHg 58%
15:00 +31°C° 0.1 mm 2 m/S 734 mmHg 60%
16:00 +30°C° 0.1 mm 2 m/S 734 mmHg 62%
17:00 +30°C° 0.1 mm 2 m/S 734 mmHg 63%
18:00 +29°C° 0.2 mm 2 m/S 734 mmHg 69%
19:00 +27°C° 0.2 mm 2 m/S 734 mmHg 74%
20:00 +26°C° 0.2 mm 2 m/S 734 mmHg 80%
21:00 +25°C° 0.1 mm 2 m/S 734 mmHg 82%
22:00 +24°C° 0.1 mm 1 m/S 734 mmHg 83%
23:00 +23°C° 0.1 mm 1 m/S 734 mmHg 85%

24 Juni, Donnerstag

Zeit Temperatur Niederschläge Wind Luftdruck Luftfeuchtigkeit
00:00 +23°C° 0.1 mm 1 m/S 734 mmHg 86%
01:00 +22°C° 0.1 mm 1 m/S 734 mmHg 87%
02:00 +22°C° 0.1 mm 1 m/S 734 mmHg 89%
03:00 +22°C° 0.1 mm 1 m/S 734 mmHg 89%
04:00 +22°C° 0.1 mm 1 m/S 734 mmHg 89%
05:00 +20°C° 0.1 mm 0 m/S 734 mmHg 89%
06:00 +23°C° 0 mm 1 m/S 734 mmHg 86%
07:00 +24°C° 0 mm 1 m/S 735 mmHg 82%
08:00 +26°C° 0 mm 2 m/S 735 mmHg 78%
09:00 +27°C° 0 mm 2 m/S 735 mmHg 73%
10:00 +28°C° 0 mm 2 m/S 735 mmHg 68%
11:00 +29°C° 0 mm 2 m/S 735 mmHg 63%
12:00 +30°C° 0 mm 2 m/S 735 mmHg 60%
13:00 +30°C° 0 mm 1 m/S 735 mmHg 57%
14:00 +31°C° 0 mm 1 m/S 735 mmHg 54%
15:00 +31°C° 0 mm 1 m/S 735 mmHg 56%
16:00 +30°C° 0 mm 1 m/S 735 mmHg 58%
17:00 +30°C° 0 mm 1 m/S 735 mmHg 60%
18:00 +29°C° 0 mm 1 m/S 735 mmHg 66%
19:00 +27°C° 0 mm 1 m/S 734 mmHg 72%
20:00 +26°C° 0 mm 1 m/S 734 mmHg 78%
21:00 +25°C° 0 mm 1 m/S 734 mmHg 80%
22:00 +24°C° 0 mm 1 m/S 734 mmHg 82%
23:00 +23°C° 0 mm 1 m/S 734 mmHg 84%

25 Juni, Freitag

Zeit Temperatur Niederschläge Wind Luftdruck Luftfeuchtigkeit
00:00 +23°C° 0 mm 1 m/S 734 mmHg 85%
01:00 +23°C° 0 mm 1 m/S 734 mmHg 86%
02:00 +22°C° 0 mm 1 m/S 734 mmHg 88%
03:00 +22°C° 0 mm 1 m/S 733 mmHg 88%
04:00 +22°C° 0 mm 1 m/S 733 mmHg 88%
05:00 +22°C° 0 mm 1 m/S 733 mmHg 87%
06:00 +24°C° 0 mm 1 m/S 733 mmHg 83%
07:00 +25°C° 0 mm 1 m/S 733 mmHg 79%
08:00 +27°C° 0 mm 1 m/S 733 mmHg 74%
09:00 +28°C° 0 mm 2 m/S 733 mmHg 69%
10:00 +29°C° 0 mm 2 m/S 733 mmHg 65%
11:00 +30°C° 0 mm 2 m/S 733 mmHg 60%
12:00 +31°C° 0 mm 2 m/S 733 mmHg 58%
13:00 +31°C° 0 mm 2 m/S 733 mmHg 55%
14:00 +32°C° 0 mm 2 m/S 733 mmHg 53%
15:00 +33°C° 0 mm 3 m/S 732 mmHg 56%
16:00 +31°C° 0 mm 3 m/S 732 mmHg 59%
17:00 +31°C° 0 mm 3 m/S 732 mmHg 63%
18:00 +28°C° 0.5 mm 4 m/S 732 mmHg 72%
19:00 +25°C° 0.5 mm 5 m/S 732 mmHg 81%
20:00 +21°C° 0.5 mm 6 m/S 733 mmHg 91%
21:00 +21°C° 0.1 mm 4 m/S 732 mmHg 90%
22:00 +20°C° 0.1 mm 3 m/S 732 mmHg 89%
23:00 +21°C° 0.1 mm 1 m/S 732 mmHg 88%

26 Juni, Samstag

Zeit Temperatur Niederschläge Wind Luftdruck Luftfeuchtigkeit
00:00 +19°C° 0.3 mm 2 m/S 732 mmHg 90%
01:00 +19°C° 0.3 mm 2 m/S 732 mmHg 92%
02:00 +18°C° 0.3 mm 2 m/S 732 mmHg 94%
03:00 +18°C° 0 mm 2 m/S 732 mmHg 94%
04:00 +18°C° 0 mm 2 m/S 732 mmHg 94%
05:00 +18°C° 0 mm 2 m/S 732 mmHg 94%
06:00 +18°C° 0.5 mm 3 m/S 732 mmHg 93%
07:00 +19°C° 0.5 mm 3 m/S 733 mmHg 92%
08:00 +20°C° 0.5 mm 4 m/S 733 mmHg 90%
09:00 +20°C° 0.1 mm 4 m/S 733 mmHg 89%
10:00 +21°C° 0.1 mm 4 m/S 733 mmHg 88%
11:00 +21°C° 0.1 mm 4 m/S 733 mmHg 87%
12:00 +22°C° 0 mm 4 m/S 733 mmHg 84%
13:00 +22°C° 0 mm 3 m/S 733 mmHg 81%
14:00 +24°C° 0 mm 2 m/S 733 mmHg 79%
15:00 +24°C° 0 mm 3 m/S 733 mmHg 78%
16:00 +24°C° 0 mm 3 m/S 733 mmHg 78%
17:00 +24°C° 0 mm 3 m/S 732 mmHg 78%
18:00 +22°C° 0 mm 3 m/S 732 mmHg 81%
19:00 +21°C° 0 mm 2 m/S 732 mmHg 85%
20:00 +20°C° 0 mm 2 m/S 732 mmHg 88%
21:00 +19°C° 0.4 mm 2 m/S 732 mmHg 90%
22:00 +19°C° 0.4 mm 2 m/S 732 mmHg 92%
23:00 +18°C° 0.4 mm 2 m/S 732 mmHg 94%
Mehr zeigen

Wir brauchen deine Erlaubnis

Meteoprog und unser Service Anbieter werden persönliche Daten aufbewahren, so wie Cookies, Geräte Bezeichnung oder ähnliche Technologien von deinem Gerät und Prozess, so wie Persönliche Daten Inhalte und Werbungen, genauso wie social Media und den Verkehr zu analysieren.

  • Aufbewahrung und/oder Zugang zu deiner Geräte Informationen.

    Cookies, Geräte Bezeichnung oder andere Informationen, können aufbewahrt oder Zugang zu deinem Gerät erhalten, für den Grund, der oben angegeben wird.

  • Personalisierte Werbung und Inhalte, Messungen, Einblick in das Publikum und Produkt Entwicklung.

    Werbungen und Inhalte können personalisiert werden, basierend auf ein Profil. Mehr Daten können besser personalisierte Werbungen und Inhalte hinzufügen. Werbung und Inhalte können gezeigt und gemessen werden. Einblicke über das Publikum, welche die Werbung gesehen haben und den Inhalt, können abgeleitet werden. So wie Daten können genutzt werden, um es zu verbessern oder die Benutzer Erfahrung zu verbessern das System und die Software.

Wenn du “Ich stimme zu” klickst, erlaubst du uns, die Cookies zu benutzen die Geräte Bezeichnung, den Web oder ähnliche Technologien zu benutzen. Deine Settings, können in deinem Gerät bei deinem Browser geändert werden.

Für den bestimmten Zweck, berechtigten Interessen beruhen darauf, mehr als auf den Inhalt. Du kannst mehr darüber in unseren Privaten und Cookie Politik lesen.